N5RML-1 Weather Reports


Display with metric or nautical units.
time (UTC)temp
F
wind
direction
speed
MPH
gust
MPH
rain 1hr
in
rain 24hr
in
rain mn
in
humidity
%
barometer
mb
20260509072537 71 151 2.0 3.0 0.00 0.51 0.00 90 1013.0
20260509071526 71 147 1.0 3.0 0.00 0.51 0.00 91 1013.1
20260509070744 71 0.0 0.0 0.00 0.51 0.00 92 1013.1
20260509070555 70 0.0 0.0 0.00 0.51 0.00 92 1013.3
20260509065523 70 0.0 0.0 0.00 0.51 0.00 93 1013.5
20260509064532 70 0.0 0.0 0.00 0.51 0.00 94 1013.7
20260509063521 70 0.0 0.0 0.00 0.51 0.00 94 1014.0
20260509062531 70 0.0 0.0 0.00 0.51 0.00 94 1013.9
20260509061537 70 0.0 0.0 0.00 0.51 0.00 94 1013.5
20260509060527 70 0.0 0.0 0.00 0.51 0.00 94 1014.1
20260509055535 70 0.0 0.0 0.00 0.51 0.00 94 1014.4
20260509054525 70 0.0 0.0 0.00 0.51 0.00 93 1014.5
20260509053532 70 0.0 0.0 0.00 0.51 0.00 93 1013.9
20260509052542 70 0.0 0.0 0.00 0.51 0.00 93 1014.1
20260509051533 70 215 1.0 3.0 0.00 0.51 0.00 93 1013.9
20260509050620 70 0.0 0.0 0.00 0.51 0.00 93 1013.8
20260509045527 70 158 0.0 2.0 0.00 0.51 0.51 93 1013.7
20260509044537 70 0.0 0.0 0.00 0.51 0.51 93 1014.1
20260509043525 70 0.0 0.0 0.00 0.51 0.51 93 1013.8
20260509042533 70 158 0.0 2.0 0.00 0.51 0.51 93 1013.5
20260509041604 70 154 1.0 4.0 0.00 0.51 0.51 93 1013.6
20260509040552 70 157 3.0 5.0 0.00 0.51 0.51 93 1013.5
20260509035521 70 158 0.0 1.0 0.00 0.51 0.51 94 1013.4
20260509034528 70 149 1.0 5.0 0.00 0.51 0.51 94 1013.2
20260509033537 70 141 3.0 5.0 0.00 0.51 0.51 94 1013.2
20260509032546 70 151 5.0 7.0 0.00 0.51 0.51 94 1013.1
20260509031533 69 156 4.0 6.0 0.00 0.51 0.51 94 1013.3
20260509030523 69 154 2.0 3.0 0.00 0.51 0.51 94 1013.5
20260509025530 69 135 0.0 2.0 0.00 0.51 0.51 94 1013.6
20260509024520 69 0.0 0.0 0.00 0.51 0.51 94 1013.5
20260509023527 69 165 1.0 3.0 0.00 0.51 0.51 94 1013.3
20260509022535 69 145 1.0 3.0 0.00 0.51 0.51 94 1013.1
20260509021525 69 148 2.0 5.0 0.00 0.51 0.51 94 1012.8
20260509020533 69 153 3.0 6.0 0.00 0.51 0.51 94 1012.9
20260509015523 69 151 3.0 6.0 0.00 0.51 0.51 94 1012.8
20260509014530 69 146 3.0 5.0 0.00 0.51 0.51 94 1012.9
20260509013521 69 124 4.0 7.0 0.00 0.51 0.51 94 1012.8
20260509012528 69 145 4.0 7.0 0.00 0.51 0.51 94 1012.7
20260509011537 69 159 3.0 6.0 0.00 0.51 0.51 94 1012.9
20260509010605 69 180 3.0 6.0 0.00 0.51 0.51 94 1012.8
20260509005533 69 115 2.0 4.0 0.00 0.51 0.51 94 1012.8
20260509004522 69 102 2.0 3.0 0.00 0.51 0.51 94 1013.0
20260509003530 69 144 3.0 4.0 0.00 0.51 0.51 94 1012.9
20260509002520 70 140 1.0 3.0 0.00 0.51 0.51 94 1013.1
20260509001528 69 45 0.0 3.0 0.00 0.51 0.51 94 1013.4
20260509000537 69 0.0 0.0 0.00 0.51 0.51 94 1013.6
20260508235528 69 0.0 0.0 0.00 0.51 0.51 94 1013.8
20260508234533 69 0.0 0.0 0.00 0.51 0.51 94 1013.7
20260508233524 69 315 0.0 3.0 0.01 0.51 0.51 94 1013.9
20260508232530 69 35 2.0 6.0 0.01 0.51 0.51 94 1013.6
20260508231520 69 309 3.0 6.0 0.02 0.51 0.51 93 1013.6
20260508230529 69 167 3.0 6.0 0.02 0.51 0.51 93 1013.3
20260508225536 68 122 4.0 8.0 0.04 0.51 0.51 93 1013.6
20260508224528 68 167 7.0 11.0 0.04 0.51 0.51 93 1013.5
20260508223554 68 143 5.0 8.0 0.03 0.50 0.50 93 1013.9
20260508222543 68 97 3.0 5.0 0.04 0.50 0.50 93 1013.5
20260508221531 68 167 3.0 8.0 0.05 0.49 0.49 93 1013.4
20260508220540 68 130 3.0 6.0 0.12 0.49 0.49 93 1013.5
20260508215528 68 97 2.0 5.0 0.13 0.47 0.47 93 1014.1
20260508214556 68 82 2.0 5.0 0.22 0.47 0.47 93 1014.3
20260508213525 68 24 3.0 6.0 0.38 0.47 0.47 93 1014.6
20260508212533 68 91 3.0 6.0 0.46 0.46 0.46 93 1015.1
20260508211523 68 48 4.0 7.0 0.44 0.44 0.44 93 1014.8
20260508210531 68 38 4.0 11.0 0.37 0.37 0.37 92 1015.1
20260508205520 68 50 5.0 9.0 0.34 0.34 0.34 92 1014.9
20260508204528 68 28 5.0 6.0 0.25 0.25 0.25 91 1015.2
20260508203538 69 23 5.0 9.0 0.09 0.09 0.09 88 1015.0
20260508202528 70 359 5.0 10.0 0.00 0.00 0.00 85 1014.8
20260508201534 70 316 6.0 11.0 0.00 0.00 0.00 85 1015.1
20260508200523 71 40 6.0 9.0 0.00 0.00 0.00 83 1014.6
20260508195531 71 316 5.0 8.0 0.00 0.00 0.00 83 1014.7
20260508194540 73 46 4.0 8.0 0.00 0.00 0.00 83 1015.0
20260508193528 73 296 3.0 6.0 0.00 0.00 0.00 83 1015.1
20260508192537 74 22 3.0 6.0 0.00 0.00 0.00 82 1015.4
20260508191525 75 29 2.0 4.0 0.00 0.00 0.00 81 1015.3
20260508190534 75 19 3.0 7.0 0.00 0.00 0.00 81 1015.2
20260508185523 76 57 3.0 8.0 0.00 0.00 0.00 80 1014.8
20260508184531 76 47 3.0 6.0 0.00 0.00 0.00 80 1014.7
20260508183521 76 76 2.0 6.0 0.00 0.00 0.00 80 1014.7
20260508182529 76 32 2.0 6.0 0.00 0.00 0.00 80 1014.6
20260508181537 77 119 4.0 5.0 0.00 0.00 0.00 80 1014.7
20260508180526 77 60 3.0 7.0 0.00 0.00 0.00 79 1014.6
20260508175554 77 199 4.0 8.0 0.00 0.00 0.00 79 1014.7
20260508174523 77 105 3.0 5.0 0.00 0.00 0.00 79 1014.5
20260508173531 77 149 3.0 5.0 0.00 0.00 0.00 78 1014.9
20260508172520 77 137 2.0 4.0 0.00 0.00 0.00 78 1015.2
20260508171547 78 24 3.0 5.0 0.00 0.00 0.00 76 1015.5
20260508170556 77 125 2.0 6.0 0.00 0.00 0.00 78 1015.3
20260508165546 77 60 4.0 6.0 0.00 0.00 0.00 77 1015.3
20260508164533 77 136 4.0 9.0 0.00 0.00 0.00 78 1015.2
20260508163524 77 120 3.0 7.0 0.00 0.00 0.00 79 1015.2
20260508162530 76 99 5.0 8.0 0.00 0.00 0.00 80 1015.3
20260508161540 75 114 3.0 5.0 0.00 0.00 0.00 81 1015.5
20260508160529 74 114 3.0 5.0 0.00 0.00 0.00 82 1015.7
20260508155537 74 72 3.0 6.0 0.00 0.00 0.00 82 1015.8
20260508154527 74 225 2.0 5.0 0.00 0.00 0.00 82 1015.9
20260508153554 74 123 4.0 8.0 0.00 0.00 0.00 81 1016.1
20260508152543 74 51 2.0 4.0 0.00 0.00 0.00 81 1016.0
20260508151532 74 102 4.0 9.0 0.00 0.00 0.00 81 1015.8
20260508150520 74 144 3.0 6.0 0.00 0.00 0.00 81 1015.7
20260508145528 74 141 2.0 4.0 0.00 0.00 0.00 79 1015.8
20260508144537 74 141 4.0 7.0 0.00 0.00 0.00 80 1015.9
20260508143546 74 143 3.0 6.0 0.00 0.00 0.00 78 1015.6
20260508142533 75 137 3.0 5.0 0.00 0.00 0.00 77 1015.5
20260508141524 73 178 2.0 4.0 0.00 0.00 0.00 78 1015.7
20260508140530 73 125 3.0 5.0 0.00 0.00 0.00 78 1015.9
20260508135541 72 57 2.0 4.0 0.00 0.00 0.00 80 1015.8
20260508134530 71 158 1.0 4.0 0.00 0.01 0.00 81 1015.9
20260508133556 71 37 3.0 5.0 0.00 0.01 0.00 81 1016.0
20260508132525 70 46 2.0 6.0 0.00 0.01 0.00 82 1015.8
20260508131534 70 16 3.0 8.0 0.00 0.01 0.00 83 1016.0
20260508130522 69 63 3.0 8.0 0.00 0.01 0.00 83 1016.2
20260508125531 69 65 3.0 6.0 0.00 0.01 0.00 84 1016.3
20260508124520 69 47 2.0 5.0 0.00 0.01 0.00 84 1016.5
20260508123528 69 58 3.0 6.0 0.00 0.01 0.00 84 1016.6
20260508122537 70 87 2.0 5.0 0.00 0.01 0.00 84 1016.3
20260508121525 70 107 2.0 5.0 0.00 0.01 0.00 84 1016.4
20260508120556 70 40 2.0 5.0 0.00 0.01 0.00 84 1015.9
20260508115546 69 71 2.0 5.0 0.00 0.01 0.00 84 1015.5
20260508114552 69 99 2.0 5.0 0.00 0.01 0.00 84 1015.8
20260508113540 69 100 2.0 3.0 0.00 0.01 0.00 84 1015.6
20260508112528 69 84 1.0 3.0 0.00 0.01 0.00 84 1016.1
20260508111537 69 69 1.0 4.0 0.00 0.01 0.00 84 1016.4
20260508110528 69 25 1.0 4.0 0.00 0.01 0.00 84 1016.1
20260508105534 69 0.0 0.0 0.00 0.01 0.00 84 1016.2
20260508104523 69 0.0 0.0 0.00 0.01 0.00 84 1015.9
20260508103531 69 45 0.0 1.0 0.00 0.01 0.00 84 1015.6
20260508102521 69 76 2.0 4.0 0.00 0.01 0.00 84 1015.4
20260508101529 69 34 2.0 4.0 0.00 0.01 0.00 84 1015.1
20260508100537 69 46 2.0 3.0 0.00 0.01 0.00 84 1014.8
20260508095546 69 112 2.0 4.0 0.00 0.01 0.00 85 1014.9
20260508094534 69 62 1.0 5.0 0.00 0.01 0.00 85 1014.8
20260508093523 69 60 3.0 6.0 0.00 0.01 0.00 85 1015.1
20260508092533 70 24 1.0 4.0 0.00 0.01 0.00 85 1015.1
20260508091522 70 54 2.0 4.0 0.00 0.01 0.00 85 1014.9
20260508090529 70 23 3.0 7.0 0.00 0.01 0.00 85 1014.9
20260508085538 70 15 1.0 4.0 0.00 0.01 0.00 85 1015.0
20260508084528 70 50 1.0 3.0 0.00 0.01 0.00 85 1015.1
20260508083534 70 46 2.0 4.0 0.00 0.01 0.00 85 1015.0
20260508082525 71 34 1.0 3.0 0.00 0.01 0.00 85 1014.9
20260508081533 71 51 1.0 4.0 0.00 0.01 0.00 85 1014.9
20260508080522 71 105 1.0 3.0 0.00 0.01 0.00 85 1015.1
20260508075529 71 45 0.0 2.0 0.00 0.01 0.00 85 1015.1
20260508074537 71 71 1.0 3.0 0.00 0.01 0.00 85 1015.3
20260508073527 71 89 1.0 4.0 0.00 0.01 0.00 85 1015.2